Regional Weather Roundup
Issued by NWS

Home | Current Version | Previous Version | Text Only | Print | Product List | Glossary Off
Versions: 1 2 3 4 5 6 7 8 9 10 11 12 13 14 15 16 17 18 19 20 21 22 23 24 25 26 27 28 29 30 31 32 33 34 35 36 37 38 39 40 41 42 43 44 45 46 47 48 49 50

000
ASUS43 KLMK 271910
RWRKY
KENTUCKY REGIONAL WEATHER ROUNDUP
NATIONAL WEATHER SERVICE LOUISVILLE KY
300 PM EDT MON JUL 27 2015

NOTE "FAIR" INDICATES FEW OR NO CLOUDS BELOW 12,000 FEET
WITH NO SIGNIFICANT WEATHER AND/OR OBSTRUCTIONS TO VISIBILITY.

KYZ001>023-026-027-061>063-070>075-272000-
WESTERN AND SOUTH CENTRAL KENTUCKY

CITY           SKY/WX    TMP DP  RH WIND       PRES   REMARKS
PADUCAH        SUNNY     91  77  63 SW6       29.94F HX 104
HENDERSON      PTSUNNY   88  73  62 N5        29.94S HX  96
OWENSBORO      PTSUNNY   91  76  61 CALM      29.96S HX 102
HOPKINSVILLE   PTSUNNY   90  75  61 VRB2      29.96F HX 101
BOWLING GREEN  HVY RAIN  82  74  76 VRB7      29.97F
GLASGOW        PTSUNNY   90  72  55 SW6       29.98F HX  96
$$

KYZ024-025-028>034-038-045-046-053-272000-
NORTH CENTRAL KENTUCKY

CITY           SKY/WX    TMP DP  RH WIND       PRES   REMARKS
LOUISVILLE/SDF PTSUNNY   88  73  61 VRB3      29.96S HX  95
LOUISVILLE/LOU CLOUDY    85  73  67 VRB3      29.97F HX  91
FORT KNOX      PTSUNNY   85  74  69 SE3       29.97F HX  92
$$

KYZ035>037-039>044-047>052-055>060-089>105-272000-
NORTHEAST KENTUCKY

CITY           SKY/WX    TMP DP  RH WIND       PRES   REMARKS
LEXINGTON      MOSUNNY   85  74  69 W6        30.00F HX  92
COVINGTON      PTSUNNY   85  71  63 CALM      29.98F HX  90
FRANKFORT      MOSUNNY   85  72  65 SW8       29.97F HX  91
$$

KYZ054-064>069-076>088-106>120-272000-
SOUTHEAST KENTUCKY

CITY           SKY/WX    TMP DP  RH WIND       PRES   REMARKS
JACKSON        MOSUNNY   85  72  65 S3        30.01F HX  91
LONDON         PTSUNNY   86  69  56 W10       30.01F HX  90
SOMERSET       PTSUNNY   86  68  54 NW7       30.01F
MIDDLESBORO    CLOUDY    86  72  64 CALM      30.01F HX  92
MONTICELLO     MOCLDY    91  72  53 CALM      30.02F HX  98
$$



USA.gov is the U.S. government's official web portal to all federal, state and local government web resources and services.